Location: Caltech
(34.1382°N, 118.1253°W)
Time: 07:03:26
(UTC-07:00)

HO-68 - Visible Passes

Search period start: 27 June 2017 00:00
Search period end: 07 July 2017 00:00
Orbit: 1193 x 1204 km, 100.1° (Epoch: 26 June)

Date Brightness Start Highest point End Pass type
(mag) Time Alt. Az. Time Alt. Az. Time Alt. Az.
30 Jun ? 21:14:47 10° SW 21:18:41 15° W 21:22:35 10° WNW visible
01 Jul ? 20:56:20 10° SW 21:01:33 21° W 21:06:49 10° NW visible
02 Jul ? 20:38:25 10° SSW 20:44:29 29° W 20:50:35 10° NW visible
06 Jul ? 21:22:00 10° WSW 21:25:01 13° W 21:28:03 10° WNW visible
